• In Hungary
  • List of Countries
  • For 7 days
  • Water Temperature
  • Satellite Maps
  • Weather Map
  • News
  • Weather Widgets
  • user-avatar
    Login

    Hourly Weather Ashdod

    Today, 11 December, Monday

    Time Temperature Precipitation Wind Pressure Humidity
    00:00 +16°C° 0 mm 2 mps 765 mmHg 41%
    01:00 +16°C° 0 mm 2 mps 765 mmHg 40%
    02:00 +16°C° 0 mm 2 mps 765 mmHg 39%
    03:00 +16°C° 0 mm 3 mps 765 mmHg 38%
    04:00 +16°C° 0 mm 3 mps 765 mmHg 38%
    05:00 +15°C° 0 mm 4 mps 765 mmHg 37%
    06:00 +17°C° 0 mm 4 mps 765 mmHg 36%
    07:00 +18°C° 0 mm 4 mps 765 mmHg 35%
    08:00 +19°C° 0 mm 4 mps 765 mmHg 34%
    09:00 +20°C° 0 mm 4 mps 765 mmHg 29%
    10:00 +22°C° 0 mm 4 mps 765 mmHg 25%
    11:00 +25°C° 0 mm 4 mps 765 mmHg 21%
    12:00 +25°C° 0 mm 4 mps 765 mmHg 20%
    13:00 +26°C° 0 mm 4 mps 765 mmHg 20%
    14:00 +27°C° 0 mm 4 mps 764 mmHg 20%
    15:00 +25°C° 0 mm 4 mps 764 mmHg 23%
    16:00 +23°C° 0 mm 5 mps 765 mmHg 26%
    17:00 +22°C° 0 mm 5 mps 765 mmHg 29%
    18:00 +22°C° 0 mm 5 mps 765 mmHg 28%
    19:00 +21°C° 0 mm 5 mps 765 mmHg 26%
    20:00 +21°C° 0 mm 5 mps 765 mmHg 25%
    21:00 +21°C° 0 mm 5 mps 764 mmHg 24%
    22:00 +21°C° 0 mm 4 mps 764 mmHg 22%
    23:00 +20°C° 0 mm 4 mps 764 mmHg 21%

    Tomorrow, 12 December, Tuesday

    Time Temperature Precipitation Wind Pressure Humidity
    00:00 +20°C° 0 mm 4 mps 764 mmHg 21%
    01:00 +20°C° 0 mm 4 mps 764 mmHg 21%
    02:00 +20°C° 0 mm 4 mps 764 mmHg 22%
    03:00 +19°C° 0 mm 4 mps 764 mmHg 22%
    04:00 +19°C° 0 mm 4 mps 763 mmHg 22%
    05:00 +19°C° 0 mm 3 mps 763 mmHg 22%
    06:00 +19°C° 0 mm 3 mps 763 mmHg 21%
    07:00 +20°C° 0 mm 3 mps 764 mmHg 21%
    08:00 +20°C° 0 mm 3 mps 764 mmHg 21%
    09:00 +22°C° 0 mm 3 mps 764 mmHg 19%
    10:00 +25°C° 0 mm 2 mps 764 mmHg 17%
    11:00 +27°C° 0 mm 2 mps 763 mmHg 15%
    12:00 +27°C° 0 mm 2 mps 763 mmHg 15%
    13:00 +28°C° 0 mm 2 mps 762 mmHg 15%
    14:00 +28°C° 0 mm 2 mps 762 mmHg 15%
    15:00 +26°C° 0 mm 2 mps 762 mmHg 19%
    16:00 +25°C° 0 mm 2 mps 762 mmHg 24%
    17:00 +23°C° 0 mm 2 mps 762 mmHg 28%
    18:00 +21°C° 0 mm 2 mps 762 mmHg 29%
    19:00 +21°C° 0 mm 2 mps 762 mmHg 30%
    20:00 +20°C° 0 mm 2 mps 762 mmHg 31%
    21:00 +20°C° 0 mm 2 mps 762 mmHg 31%
    22:00 +19°C° 0 mm 2 mps 762 mmHg 32%
    23:00 +19°C° 0 mm 2 mps 763 mmHg 33%

    Day after tomorrow, 13 December, Wednesday

    Time Temperature Precipitation Wind Pressure Humidity
    00:00 +19°C° 0 mm 2 mps 763 mmHg 35%
    01:00 +18°C° 0 mm 2 mps 762 mmHg 37%
    02:00 +18°C° 0 mm 2 mps 762 mmHg 38%
    03:00 +18°C° 0 mm 2 mps 762 mmHg 41%
    04:00 +17°C° 0 mm 2 mps 762 mmHg 44%
    05:00 +17°C° 0 mm 2 mps 762 mmHg 47%
    06:00 +18°C° 0 mm 2 mps 762 mmHg 50%
    07:00 +18°C° 0 mm 2 mps 763 mmHg 52%
    08:00 +19°C° 0 mm 2 mps 763 mmHg 54%
    09:00 +20°C° 0 mm 2 mps 763 mmHg 53%
    10:00 +21°C° 0 mm 2 mps 763 mmHg 51%
    11:00 +22°C° 0 mm 3 mps 763 mmHg 49%
    12:00 +22°C° 0 mm 3 mps 763 mmHg 49%
    13:00 +23°C° 0 mm 4 mps 762 mmHg 49%
    14:00 +23°C° 0 mm 5 mps 762 mmHg 48%
    15:00 +22°C° 0 mm 5 mps 762 mmHg 55%
    16:00 +21°C° 0 mm 4 mps 762 mmHg 61%
    17:00 +20°C° 0 mm 4 mps 762 mmHg 68%
    18:00 +19°C° 0 mm 3 mps 762 mmHg 70%
    19:00 +19°C° 0 mm 3 mps 763 mmHg 72%
    20:00 +18°C° 0 mm 2 mps 763 mmHg 75%
    21:00 +18°C° 0 mm 2 mps 763 mmHg 75%
    22:00 +17°C° 0 mm 2 mps 763 mmHg 76%
    23:00 +18°C° 0 mm 1 mps 763 mmHg 77%

    14 December, Thursday

    Time Temperature Precipitation Wind Pressure Humidity
    00:00 +16°C° 0 mm 1 mps 763 mmHg 77%
    01:00 +16°C° 0 mm 1 mps 763 mmHg 77%
    02:00 +16°C° 0 mm 1 mps 763 mmHg 77%
    03:00 +16°C° 0 mm 1 mps 763 mmHg 77%
    04:00 +16°C° 0 mm 1 mps 763 mmHg 78%
    05:00 +15°C° 0 mm 1 mps 763 mmHg 78%
    06:00 +16°C° 0 mm 1 mps 763 mmHg 74%
    07:00 +18°C° 0 mm 1 mps 763 mmHg 70%
    08:00 +18°C° 0 mm 2 mps 764 mmHg 66%
    09:00 +19°C° 0 mm 2 mps 764 mmHg 63%
    10:00 +19°C° 0 mm 2 mps 764 mmHg 59%
    11:00 +20°C° 0 mm 2 mps 764 mmHg 56%
    12:00 +21°C° 0 mm 2 mps 763 mmHg 55%
    13:00 +21°C° 0 mm 3 mps 763 mmHg 55%
    14:00 +21°C° 0 mm 3 mps 762 mmHg 54%
    15:00 +21°C° 0 mm 3 mps 762 mmHg 59%
    16:00 +20°C° 0 mm 3 mps 762 mmHg 64%
    17:00 +19°C° 0 mm 3 mps 763 mmHg 69%
    18:00 +19°C° 0 mm 3 mps 763 mmHg 71%
    19:00 +18°C° 0 mm 2 mps 763 mmHg 74%
    20:00 +18°C° 0 mm 2 mps 764 mmHg 76%
    21:00 +18°C° 0 mm 2 mps 763 mmHg 78%
    22:00 +18°C° 0 mm 1 mps 763 mmHg 80%
    23:00 +18°C° 0 mm 1 mps 763 mmHg 82%

    15 December, Friday

    Time Temperature Precipitation Wind Pressure Humidity
    00:00 +16°C° 0 mm 1 mps 763 mmHg 83%
    01:00 +16°C° 0 mm 1 mps 763 mmHg 83%
    02:00 +16°C° 0 mm 1 mps 763 mmHg 84%
    03:00 +16°C° 0 mm 1 mps 763 mmHg 83%
    04:00 +16°C° 0 mm 1 mps 763 mmHg 83%
    05:00 +16°C° 0 mm 1 mps 763 mmHg 82%
    06:00 +16°C° 0 mm 1 mps 763 mmHg 79%
    07:00 +18°C° 0 mm 1 mps 764 mmHg 76%
    08:00 +18°C° 0 mm 1 mps 764 mmHg 73%
    09:00 +19°C° 0 mm 1 mps 764 mmHg 67%
    10:00 +20°C° 0 mm 1 mps 764 mmHg 62%
    11:00 +21°C° 0 mm 1 mps 764 mmHg 56%
    12:00 +20°C° 0 mm 2 mps 763 mmHg 55%
    13:00 +20°C° 0 mm 2 mps 763 mmHg 54%
    14:00 +21°C° 0 mm 2 mps 763 mmHg 53%
    15:00 +20°C° 0 mm 2 mps 763 mmHg 56%
    16:00 +19°C° 0 mm 2 mps 763 mmHg 60%
    17:00 +19°C° 0 mm 2 mps 763 mmHg 63%
    18:00 +18°C° 0 mm 2 mps 764 mmHg 66%
    19:00 +19°C° 0 mm 1 mps 764 mmHg 69%
    20:00 +18°C° 0 mm 1 mps 764 mmHg 72%
    21:00 +18°C° 0 mm 1 mps 764 mmHg 74%
    22:00 +16°C° 0 mm 1 mps 764 mmHg 75%
    23:00 +16°C° 0 mm 1 mps 764 mmHg 77%

    16 December, Saturday

    Time Temperature Precipitation Wind Pressure Humidity
    00:00 +16°C° 0 mm 1 mps 764 mmHg 78%
    01:00 +15°C° 0 mm 1 mps 764 mmHg 80%
    02:00 +15°C° 0 mm 1 mps 764 mmHg 81%
    03:00 +15°C° 0 mm 1 mps 764 mmHg 81%
    04:00 +15°C° 0 mm 1 mps 764 mmHg 82%
    05:00 +14°C° 0 mm 1 mps 764 mmHg 83%
    06:00 +15°C° 0 mm 1 mps 764 mmHg 79%
    07:00 +16°C° 0 mm 1 mps 765 mmHg 76%
    08:00 +18°C° 0 mm 1 mps 765 mmHg 72%
    09:00 +19°C° 0 mm 1 mps 765 mmHg 67%
    10:00 +20°C° 0 mm 1 mps 764 mmHg 61%
    11:00 +21°C° 0 mm 1 mps 764 mmHg 56%
    12:00 +21°C° 0 mm 1 mps 764 mmHg 53%
    13:00 +21°C° 0 mm 2 mps 763 mmHg 51%
    14:00 +21°C° 0 mm 2 mps 763 mmHg 48%
    15:00 +20°C° 0 mm 3 mps 763 mmHg 51%
    16:00 +20°C° 0 mm 3 mps 763 mmHg 54%
    17:00 +19°C° 0 mm 3 mps 763 mmHg 57%
    18:00 +19°C° 0 mm 3 mps 763 mmHg 58%
    19:00 +18°C° 0 mm 3 mps 763 mmHg 60%
    20:00 +18°C° 0 mm 3 mps 763 mmHg 61%
    21:00 +18°C° 0 mm 3 mps 763 mmHg 58%
    22:00 +17°C° 0 mm 3 mps 763 mmHg 56%
    23:00 +17°C° 0 mm 3 mps 763 mmHg 54%
    Show more